Location: Newark
(48.9358°N, 1.4000°E)
Time: 05:03:44
(UTC+00:00)

N. Korean satellite - Pass Details

Date: 14 October 2019
Orbit: 456 x 506 km, 97.2° (Epoch: 16 November)

Event Time Altitude Azimuth Distance (km) Brightness Sun altitude
Rises 17:58:17 0° 207° (SSW) 2,467 10.6 -9.1°
Reaches altitude 10° 18:00:59 10° 232° (SW) 1,598 10.1 -9.6°
Maximum altitude 18:03:03 15° 269° (W) 1,318 10.2 -9.9°
Drops below altitude 10° 18:05:08 10° 307° (NW) 1,609 10.1 -10.3°
Sets 18:07:53 0° 331° (NNW) 2,494 10.6 -10.7°
